SCP
0 0 0 0 0 0 0 0 0 0 0 0 0 0 0 0 0 0 0 0 0 0 0 0 0 0 0 0 0 0 0 0 0 0 0 0 0 0 0 0 0 0 0
0 0 0 0 0 0 0 0 0 0 0 0 0 0 0 0 0 0 0 0 0 0 0 0 0 0 0 0 0 0 0 0 0 0 0 0 0 0 0 0 0 0 0
0 0 0 0 0 0 0 0 0 0 0 0 0 0 0 0 0 0 0 0 0 0 0 0 0 0 0 0 -0 -0 -0 -0 0 0 0 0 0 0 0 0 0 0 -0
0 0 0 0 0 0 0 0 0 0 0 0 0 0 0 0 0 0 0 0 0 0 0 0 -0 -0 0 0 0 0 0 0 0 0 0 0 0 0 0 0 0 0 0
0 0 0 0 0 0 0 0 0 0 0 0 0 0 0 0 0 0 0 0 0 0 0 0 -0 -0 0 0 0 0 0 0 0 0 0 0 0 0 0 0 0 0 0
0 0 0 -0 -0 -0 0 0 0 0 0 0 0 0 0 0 0 0 0 0 0 0 0 0 -0 -0 0 0 0 0 0 0 0 0 0 0 0 0 0 0 0 0 0
0 0 0 -0 -0 -0 0 0 0 0 0 0 0 0 0 0 0 0 0 0 0 0 0 0 0 0 0 0 0 0 0 0 0 0 0 0 0 0 0 0 0 0 0
0 0 0 0 -0 -0 0 0 0 0 0 0 0 0 0 0 0 0 0 0 0 0 0 0 0 0 0 0 0 0 0 0 0 0 0 0 0 0 0 0 0 0 0
0 0 0 0 0 0 0 0 0 0 0 0 0 0 0 0 0 0 0 0 0 0 0 0 0 -0 0 0 0 0 0 0 0 0 0 0 0 0 0 0 0 0 0
0 0 0 0 0 0 0 0 0 0 0 0 0 0 0 0 0 0 0 0 0 0 0 0 0 0 0 0 0 0 0 0 0 0 0 0 0 0 0 0 0 0 0
0 0 0 0 0 0 0 0 0 0 0 0 0 0 0 0 0 0 0 0 0 0 0 0 0 0 0 0 0 0 0 0 0 0 0 0 0 0 0 0 0 0 0
0 0 0 0 0 0 0 0 0 0 0 0 0 0 0 0 0 0 0 0 0 0 0 0 0 0 0 0 0 0 0 0 0 0 0 0 0 0 0 0 0 0 0
0 0 0 0 0 0 0 0 0 0 0 0 0 0 0 0 0 0 0 0 0 0 0 0 0 0 0 0 0 0 0 0 0 0 0 0 0 0 0 0 0 0 0
0 0 0 0 0 0 0 0 0 0 0 0 0 0 0 0 0 0 0 0 0 0 0 0 0 0 0 0 0 0 0 0 0 0 0 0 0 0 0 0 0 0 0
0 0 -0 -0 -0 0 0 0 0 0 0 0 0 0 0 0 0 0 0 0 0 0 -0 0 0 0 0 0 0 0 0 0 0 0 0 0 0 0 0 0 0 0 0
0 0 -0 -0 -0 -0 0 0 0 0 0 0 0 0 0 0 0 0 0 0 0 0 -0 0 0 0 0 0 0 0 0 0 0 0 0 -0 -0 0 0 0 0 0 0
0 0 -0 -0 -0 -0 0 0 0 0 0 0 0 0 0 0 0 0 0 0 0 0 0 0 0 0 0 0 0 0 0 0 0 0 -0 -0 -0 0 0 0 0 0 0
0 0 0 0 0 -0 0 0 0 0 0 0 0 0 0 0 0 0 0 0 0 0 0 0 0 0 0 0 0 0 0 0 0 0 -0 -0 -0 0 0 0 0 0 0
0 0 0 0 0 0 0 0 0 0 0 0 0 0 0 0 0 0 0 0 0 0 0 0 0 0 0 0 0 0 0 0 0 0 -0 -0 0 0 0 0 0 0 0
-0 -0 -0 -0 -0 -0 0 0 0 0 0 0 0 0 0 0 0 0 0 0 0 0 0 0 0 0 0 0 0 0 0 0 0 0 0 0 0 0 0 0 0 0 0
0 0 -0 -0 -0 -0 0 0 0 0 0 0 0 0 0 0 0 0 0 0 0 0 0 0 0 0 0 0 0 0 0 0 0 0 0 0 0 -0 0 0 0 0 0
0 0 -0 -0 -0 -0 0 0 0 0 0 0 -0 0 0 0 0 0 0 0 0 0 0 0 0 0 0 0 0 0 0 0 0 0 0 0 0 0 0 0 0 0 0
0 0 0 0 0 0 0 0 0 0 0 0 0 0 -0 -0 -0 0 0 0 0 0 0 0 0 0 0 0 0 0 0 0 0 0 0 0 0 0 0 0 0 0 0
0 0 0 0 0 0 0 0 0 0 0 0 0 -0 -0 -0 -0 -0 0 0 0 0 0 0 0 0 0 0 0 0 0 0 0 0 0 0 0 0 0 0 -0 -0 -0
0 0 0 0 0 0 0 0 0 0 0 0 -0 -0 -0 -0 -0 -0 0 0 0 0 0 0 0 0 0 0 0 0 0 0 0 0 0 0 0 0 0 0 0 0 0
0 0 0 0 0 0 0 0 0 0 0 -0 -0 -0 -0 -0 -0 -0 0 0 0 0 0 0 0 0 0 0 0 0 0 0 0 0 0 0 0 0 0 0 0 0 0
Wind_Speed
11 11 11 10 10 10 10 9 8 7 7 8 8 8 8 8 7 7 6 6 7 6 5 5 5 4 4 3 3 3 3 2 1 2 2 3 4 5 6 5 5 4 5
10 10 10 9 9 9 8 7 7 7 7 7 7 7 8 7 6 6 6 6 6 5 5 5 4 3 4 3 2 3 2 1 1 3 3 3 4 5 6 6 5 5 5
9 9 9 8 8 8 7 6 6 6 6 6 7 7 7 6 6 5 5 5 4 4 4 4 3 3 3 2 2 2 2 2 1 2 3 2 3 3 4 4 5 4 6
8 8 8 7 6 6 6 6 6 6 6 6 6 6 5 5 5 5 5 5 4 4 4 3 3 2 2 2 2 2 2 2 2 2 3 3 3 3 3 4 5 5 5
7 7 6 5 5 5 5 5 5 5 5 5 5 5 5 4 5 4 4 4 4 4 4 4 3 4 4 3 3 3 3 2 2 3 3 3 3 3 3 3 4 6 5
6 5 4 4 5 5 4 4 5 5 5 5 5 5 5 4 6 7 5 4 4 4 4 4 4 4 6 8 8 7 5 3 3 2 2 4 5 4 3 3 3 4 5
5 4 4 4 4 4 4 5 4 4 4 4 4 4 4 5 7 7 6 3 3 3 3 4 4 5 7 6 8 9 8 7 5 4 5 5 5 4 4 5 4 4 4
4 3 3 3 3 4 4 4 3 2 3 3 3 3 3 5 8 7 6 4 3 4 4 4 4 6 6 7 7 7 7 6 5 4 6 7 8 7 5 4 4 5 6
3 2 2 3 3 3 3 3 2 2 2 2 2 2 3 4 7 8 6 4 4 5 5 5 5 6 8 8 5 7 8 6 5 6 7 9 11 10 6 3 3 3 3
2 2 2 3 3 3 2 2 1 2 2 2 2 2 3 3 6 8 7 3 4 5 6 5 6 7 10 8 4 4 6 7 8 9 7 7 6 5 2 3 3 2 2
3 3 3 3 3 3 2 2 2 2 3 3 3 3 3 3 5 7 7 3 3 5 5 5 6 11 11 8 4 2 5 7 6 6 6 6 5 4 3 2 3 3 3
3 3 3 3 2 3 3 3 3 3 3 3 2 3 2 3 4 6 8 6 4 3 4 5 6 11 9 8 5 6 6 4 3 4 4 5 5 5 5 5 3 4 5
4 3 3 3 3 3 3 3 3 2 2 2 1 2 3 3 4 6 7 8 7 3 4 7 8 8 7 6 8 9 6 4 4 4 4 4 4 5 5 4 3 2 3
4 3 2 3 2 3 2 2 2 1 1 1 1 1 2 3 4 5 6 5 6 4 4 6 6 7 7 6 6 6 5 4 3 4 4 4 4 4 3 3 3 4 3
3 2 2 2 2 2 2 1 1 1 2 1 1 1 1 3 4 7 6 5 4 4 3 3 5 5 7 6 6 6 6 6 6 5 5 5 5 5 4 3 3 2 2
3 2 1 1 1 1 1 1 1 0 1 2 3 3 3 5 8 8 6 6 6 4 4 4 4 4 5 5 6 6 6 6 6 6 5 5 5 5 5 4 3 3 3
3 2 1 1 1 1 1 1 1 2 2 1 2 3 4 5 5 5 4 5 8 6 4 3 3 4 4 5 5 5 5 6 6 5 5 5 5 4 4 4 4 4 4
2 2 2 1 1 1 1 1 1 0 1 2 3 4 4 3 4 5 4 4 4 5 3 3 3 4 4 5 5 5 6 6 6 5 5 5 5 4 4 5 4 4 4
2 1 1 1 1 1 1 1 1 1 0 1 2 3 5 4 5 7 5 3 2 2 2 3 3 3 4 4 5 5 5 5 6 5 5 6 5 5 5 5 5 5 4
2 2 2 2 1 1 1 1 1 1 0 1 1 2 2 2 2 3 3 2 1 1 2 2 3 3 4 4 5 5 5 5 6 5 6 5 5 5 5 6 5 5 4
1 1 2 2 2 2 2 1 1 1 0 0 1 2 1 0 1 1 2 1 1 1 2 2 3 4 4 4 5 6 7 5 5 5 6 6 6 5 5 5 5 4 4
2 1 1 2 2 2 2 1 1 1 0 1 1 1 1 1 0 1 1 1 1 1 1 2 2 3 4 4 5 5 6 6 6 6 6 6 6 6 6 5 5 5 5
2 2 2 2 2 2 2 1 1 0 0 1 1 0 1 0 1 1 2 1 1 1 1 1 2 3 4 3 4 4 5 6 6 6 7 6 6 6 6 6 6 6 5
2 3 3 3 2 2 2 2 1 1 1 1 1 1 1 1 1 2 2 1 1 1 1 1 2 5 7 5 4 4 4 6 7 6 7 6 7 6 6 5 5 6 5
2 3 3 3 3 3 2 2 1 1 1 1 1 1 1 1 1 1 1 1 1 1 1 1 2 4 7 8 7 7 8 8 7 6 5 5 6 6 5 5 5 5 5
2 3 3 3 3 3 3 2 2 2 2 2 1 1 1 1 1 1 1 1 1 1 1 1 3 5 6 6 8 9 9 9 9 8 6 4 5 5 5 4 5 5 6
Wind_Direction
75 77 79 78 77 78 78 77 77 75 72 72 71 68 63 57 54 61 60 60 63 55 49 55 50 42 41 33 34 37 36 36 347 303 287 302 311 324 332 328 320 316 312
78 80 79 78 77 77 77 75 77 76 72 73 72 69 65 58 52 56 58 55 57 52 43 48 42 44 43 32 31 29 21 15 335 312 309 313 308 317 321 321 325 326 318
82 82 79 76 75 75 76 75 75 75 71 67 68 67 62 56 52 50 56 54 51 44 36 39 30 37 29 17 11 6 351 353 317 296 303 301 298 315 326 323 325 322 322
86 84 80 76 77 78 75 73 73 75 74 69 68 68 63 56 50 47 48 45 37 30 26 26 23 23 8 353 348 338 330 335 330 313 304 303 298 307 312 322 329 331 325
88 83 81 80 78 76 73 71 71 69 72 72 74 65 54 51 42 49 46 44 33 25 21 16 7 13 10 352 339 324 321 317 320 319 314 308 307 316 322 319 316 323 315
92 89 85 81 76 71 69 70 70 65 63 66 67 63 52 40 37 48 52 40 29 24 9 355 347 360 354 350 345 339 323 297 294 289 289 297 296 295 296 306 316 330 322
95 89 84 83 77 67 72 72 71 68 69 70 65 62 51 30 35 37 40 41 23 6 351 344 343 344 349 340 337 336 330 314 274 249 267 276 282 287 298 302 304 305 294
95 88 88 89 81 74 73 73 70 71 75 73 65 57 47 27 28 28 25 27 14 358 348 338 329 328 335 337 331 330 327 319 301 272 256 270 273 278 266 271 294 297 285
103 102 99 100 95 85 79 73 65 73 70 66 63 55 43 13 14 19 22 10 2 352 344 340 332 327 326 334 332 330 330 328 321 308 287 282 281 280 264 247 271 296 314
124 114 101 104 108 99 89 73 59 80 78 72 59 42 33 8 4 15 19 9 358 346 338 338 341 338 332 335 327 322 324 322 331 333 331 329 321 318 276 222 241 264 293
130 111 96 95 104 106 91 72 74 79 72 60 51 29 19 6 1 8 12 9 347 334 335 335 334 336 338 340 336 297 287 297 310 317 322 331 340 348 347 307 235 229 248
112 101 90 78 79 96 92 72 64 78 77 57 41 18 2 355 356 353 356 355 344 325 322 323 323 333 347 1 5 352 337 330 329 339 344 344 341 338 331 322 288 244 240
101 91 84 80 74 81 93 86 67 65 73 56 41 8 340 338 339 347 349 347 347 337 312 319 334 353 10 17 13 12 13 11 2 357 346 331 317 310 312 321 330 312 276
110 101 97 93 76 64 70 86 93 92 89 74 39 356 334 330 340 347 343 340 345 353 347 343 358 19 29 19 9 11 13 6 358 346 329 319 323 333 346 349 343 344 343
110 105 101 94 91 77 64 70 124 194 196 185 212 241 312 325 318 325 328 330 332 334 345 11 22 16 14 8 2 1 3 6 4 353 346 344 345 348 347 343 340 338 340
120 120 126 126 107 111 100 38 14 236 246 220 217 220 255 266 296 319 343 7 16 33 56 39 23 15 10 2 355 352 355 359 352 344 345 347 345 343 343 347 346 341 334
149 158 160 166 162 161 154 132 360 348 351 333 303 285 274 295 317 342 10 45 42 48 55 36 19 7 359 354 352 348 343 339 337 341 345 345 342 341 348 350 351 345 339
154 176 182 193 188 193 189 176 167 109 357 344 351 2 8 15 25 28 39 56 38 35 34 20 6 358 352 349 347 343 338 341 347 346 346 346 346 342 346 348 348 342 331
161 184 185 174 168 176 171 158 153 146 50 337 343 354 9 27 46 43 46 54 39 19 11 4 356 350 346 343 342 340 338 340 343 340 343 345 343 341 342 342 338 338 339
185 199 175 154 141 136 136 136 131 125 69 2 345 331 341 18 25 15 24 22 21 1 349 349 348 346 344 343 341 340 340 343 345 344 340 339 337 333 334 336 336 335 331
173 177 152 141 148 151 145 143 142 137 124 307 302 297 280 28 5 350 347 348 338 332 335 339 341 343 345 342 341 341 342 339 341 338 334 333 333 332 329 327 328 330 328
166 170 159 161 156 151 148 144 135 136 250 280 302 340 42 80 351 325 319 321 323 318 326 329 339 344 342 340 338 335 334 334 337 336 330 326 325 326 328 332 338 339 343
167 167 157 151 148 147 138 135 142 164 262 274 286 315 355 339 319 315 311 310 314 330 354 352 345 346 346 341 337 330 324 323 319 315 314 316 320 324 327 330 336 340 345
172 173 168 158 151 152 158 161 179 220 254 259 262 266 277 291 305 315 314 309 302 323 353 359 353 349 350 347 339 334 326 316 310 300 299 298 307 313 319 327 334 342 343
170 173 173 170 167 168 172 182 207 239 254 247 243 255 269 283 296 307 315 308 295 296 341 356 351 349 349 348 347 343 333 325 321 316 303 295 303 311 319 331 343 351 358
173 175 172 168 171 175 182 196 216 235 248 247 239 243 251 262 274 286 293 286 276 279 304 330 343 350 349 347 346 342 337 336 335 331 323 317 324 337 343 349 1 6 9